Location: Monroe
(41.9160°N, 83.3980°W)
Time: 20:16:33
(UTC-04:00)

ISS - All Passes

Search period start: 01 September 2015 00:00
Search period end: 11 September 2015 00:00
Orbit: 400 x 402 km, 51.6° (Epoch: 01 September)

Date Brightness Start Highest point End Pass type
(mag) Time Alt. Az. Time Alt. Az. Time Alt. Az.
01 Sep - 09:05:08 10° SSW 09:07:54 26° SE 09:10:42 10° ENE daylight
01 Sep - 10:41:07 10° W 10:44:13 39° NNW 10:47:19 10° NE daylight
01 Sep - 12:19:09 10° NW 12:21:17 16° N 12:23:24 10° NNE daylight
01 Sep - 13:56:18 10° NNW 13:58:37 18° NNE 14:00:56 10° ENE daylight
01 Sep - 15:32:19 10° NW 15:35:33 58° NNE 15:38:45 10° ESE daylight
01 Sep - 17:09:30 10° W 17:11:41 16° SW 17:13:47 10° S daylight
02 Sep - 08:13:05 10° SSE 08:14:47 14° SE 08:16:35 10° E daylight
02 Sep - 09:47:37 10° WSW 09:50:51 70° NNW 09:54:07 10° NE daylight
02 Sep - 11:25:18 10° WNW 11:27:44 19° NNW 11:30:08 10° NNE daylight
02 Sep - 13:03:00 10° NNW 13:05:03 15° N 13:07:06 10° NE daylight
02 Sep - 14:39:08 10° NW 14:42:10 35° NNE 14:45:12 10° E daylight
02 Sep - 16:15:37 10° WNW 16:18:33 31° SW 16:21:28 10° SSE daylight
03 Sep - 08:54:23 10° SW 08:57:35 61° SE 09:00:49 10° ENE daylight
03 Sep - 10:31:28 10° WNW 10:34:13 24° NNW 10:36:58 10° NE daylight
03 Sep - 12:09:30 10° NW 12:11:28 15° N 12:13:25 10° NE daylight
03 Sep - 13:45:59 10° NW 13:48:43 24° NNE 13:51:27 10° ENE daylight
03 Sep - 15:22:08 10° WNW 15:25:21 63° SW 15:28:34 10° SE daylight
04 Sep - 08:01:30 10° SSW 08:04:23 30° SE 08:07:20 10° ENE daylight
04 Sep - 09:37:43 10° W 09:40:46 35° NNW 09:43:49 10° NE daylight
04 Sep - 11:15:48 10° NW 11:17:53 16° N 11:19:56 10° NNE daylight
04 Sep - 12:52:49 10° NNW 12:55:12 19° NNE 12:57:36 10° ENE daylight
04 Sep - 14:28:50 10° NW 14:32:05 68° NNE 14:35:19 10° ESE daylight
04 Sep - 16:06:19 10° W 16:08:10 14° SW 16:09:56 10° SSW daylight
05 Sep - 07:09:12 10° S 07:11:16 16° SE 07:13:24 10° E daylight
05 Sep - 08:44:10 10° WSW 08:47:24 60° NNW 08:50:38 10° NE daylight
05 Sep - 10:21:58 10° WNW 10:24:19 18° NNW 10:26:39 10° NNE daylight
05 Sep - 11:59:32 10° NNW 12:01:39 16° N 12:03:45 10° NE daylight
05 Sep - 13:35:38 10° NW 13:38:43 39° NNE 13:41:48 10° E daylight
05 Sep - 15:12:14 10° WNW 15:15:02 27° SW 15:17:50 10° SSE daylight
06 Sep - 07:50:52 10° SW 07:54:06 72° SE 07:57:22 10° ENE daylight
06 Sep - 09:28:07 10° WNW 09:30:48 23° NNW 09:33:28 10° NE daylight
06 Sep - 11:06:06 10° NW 11:08:04 15° N 11:10:01 10° NE daylight
06 Sep - 12:42:29 10° NW 12:45:17 26° NNE 12:48:06 10° E daylight
06 Sep - 14:18:41 10° WNW 14:21:52 53° SW 14:25:02 10° SE daylight
07 Sep - 06:57:53 10° SSW 07:00:54 36° SE 07:03:56 10° ENE daylight
07 Sep - 08:34:21 10° W 08:37:20 32° NNW 08:40:19 10° NE daylight
07 Sep - 10:12:27 10° NW 10:14:29 15° N 10:16:30 10° NNE daylight
07 Sep - 11:49:19 10° NW 11:51:47 20° NNE 11:54:17 10° ENE daylight
07 Sep - 13:25:21 10° NW 13:28:37 79° NNE 13:31:52 10° ESE daylight
07 Sep - 15:03:15 10° WSW 15:04:39 12° SW 15:05:56 10° SSW daylight
08 Sep - 06:05:25 10° S 06:07:46 19° SE 06:10:09 10° E visible
08 Sep - 07:40:45 10° WSW 07:43:56 52° NNW 07:47:09 10° NE daylight
08 Sep - 09:18:38 10° NW 09:20:55 17° N 09:23:11 10° NNE daylight
08 Sep - 10:56:05 10° NNW 10:58:15 16° N 11:00:25 10° NE daylight
08 Sep - 12:32:09 10° NW 12:35:17 43° NNE 12:38:24 10° ESE daylight
08 Sep - 14:08:53 10° W 14:11:33 23° SW 14:14:10 10° S daylight
09 Sep - 06:47:23 10° SW 06:50:38 85° SE 06:53:54 10° NE daylight
09 Sep - 08:24:47 10° WNW 08:27:23 21° NNW 08:29:58 10° NE daylight
09 Sep - 10:02:41 10° NW 10:04:40 15° N 10:06:39 10° NE daylight
09 Sep - 11:38:59 10° NW 11:41:52 28° NNE 11:44:45 10° E daylight
09 Sep - 13:15:15 10° WNW 13:18:23 45° SW 13:21:29 10° SSE daylight
10 Sep - 05:54:19 10° SSW 05:57:25 42° SE 06:00:31 10° ENE visible
10 Sep - 07:30:59 10° W 07:33:54 29° NNW 07:36:49 10° NE daylight
10 Sep - 09:09:05 10° NW 09:11:05 15° N 09:13:04 10° NE daylight
10 Sep - 10:45:49 10° NW 10:48:23 21° NNE 10:50:57 10° ENE daylight
10 Sep - 12:21:53 10° NW 12:25:10 89° S 12:28:24 10° SE daylight
10 Sep - 14:00:40 10° WSW 14:01:08 10° SW 14:01:27 10° SW daylight
